Aérodrome :
LOGIN :

S'inscrire | Disclaimer

   EN    FR    IT 

 










Légende :    VFR   VFR Marginal   IFR   IFR Intensif   IFR Très Intensif
Visi : 
Plafond : 
>= 8 km
>= 3000ft
5 à 8 km
1000 à 3000 ft
1500m à 5 km
500 à 1000 ft
800 à 1500m
200 à 500 ft
< 800m
< 200 ft
Symboles :   Orages  Brouillard  Fortes neiges  Fortes précipitations  Vent > 20 kt
SIGMETs :   Divers  Orages  Givrage  Turbulence  Onde Orograph.  Cendres Volcan.







- Altitude de l'aérodrome : 794 ft


LKCV - Čáslav Air Base

DERNIER METAR :
  • 261800Z 33006KT CAVOK 21/12 Q1019 NOSIG RMK BLU BLU

METARs EXPIRÉS :
  • 261700Z 32011KT CAVOK 22/11 Q1018 NOSIG RMK BLU BLU
  • 261600Z 33011KT CAVOK 23/11 Q1018 NOSIG

TAF TAF LKCV
Valide du 26 à 18h jusqu'au 27 à 18h UTC


261700Z 2618/2718 32008KT CAVOK
TEMPO 2623/2707 VRB02KT
PROB30
TEMPO 2700/2704 7000 SCT035
BECMG 2706/2708 04010KT
Pas de NOTAMs connus pour ce terrain.



MET'MAP, la Météo Aéronautique d'un coup d'oeil ! - Copyright ORBIFLY Décembre 2007 - Disclaimer

ORBIFLY MET'MAP TEAM :

Programmation & Développement : Alexandra Zaïnal
Conception & Développement : Baudouin d'Aumeries
Co-Programmation & Développement : Marc-Olivier Méhu
Soutien technique & logistique : Manuel Goepfert

Contact : metmap@orbifly.com




SOURCES & CREDITS :

   NOAA